Theta_e
307 310 311 313 314 314 316 316 315 314 317 320 322 321 322 323 323 325 325 326 326 326 326 326 325 322 312 306 309 313 327 328 320 316 316 315 310 307 303 303 303 296 297 297 298 297 297
306 307 311 312 313 313 314 314 315 315 317 320 320 321 320 321 322 324 325 325 326 326 326 326 324 321 306 302 314 314 319 318 315 309 313 316 313 311 306 304 302 301 300 296 297 295 295
305 306 310 311 311 311 313 313 313 314 314 316 318 320 319 321 321 323 323 324 325 325 325 325 323 312 304 308 307 314 319 318 315 309 312 316 315 312 307 302 307 303 298 298 294 294 293
304 305 308 309 310 310 310 311 312 312 313 315 314 319 319 320 321 322 323 324 324 324 324 325 322 308 302 307 309 316 315 312 314 310 309 314 318 312 306 305 300 297 293 287 293 294 292
304 304 306 307 309 309 310 310 310 312 313 314 315 318 319 319 320 320 322 323 323 324 324 323 310 302 295 311 304 308 311 311 310 308 307 307 313 303 303 294 292 292 287 285 289 293 291
304 304 305 305 306 309 308 309 310 309 311 313 315 315 318 319 319 320 321 322 322 322 317 312 309 294 298 297 302 306 303 312 307 305 302 299 301 297 297 292 285 287 285 286 287 290 289
303 303 303 303 305 306 307 307 308 309 309 312 315 314 318 318 319 320 319 314 306 305 305 297 298 295 296 300 304 301 302 302 306 303 293 295 291 289 294 297 292 290 289 287 289 291 289
303 302 302 302 303 305 306 306 307 309 309 310 314 314 318 318 319 319 314 305 302 304 296 301 301 298 300 300 295 298 302 296 296 293 295 292 288 293 295 293 292 289 288 287 288 290 288
303 302 302 302 302 305 304 304 306 307 309 309 311 314 318 318 318 315 309 302 308 305 292 295 299 297 298 299 294 295 298 295 293 290 291 288 290 295 293 291 290 288 288 286 287 288 287
303 303 302 301 303 303 303 303 305 306 308 308 309 312 316 317 312 311 305 307 309 301 285 288 293 296 299 298 292 299 299 295 291 290 291 291 294 293 291 291 292 287 289 289 287 285 281
304 303 302 301 301 303 302 303 303 305 306 308 308 311 314 317 311 306 307 308 306 300 274 289 291 301 299 293 294 294 298 293 288 289 289 287 290 291 290 291 292 289 290 289 288 284 281
305 304 303 302 301 301 302 302 302 303 305 306 308 310 311 314 312 311 311 309 302 285 274 285 291 291 291 292 292 293 294 294 293 289 289 289 291 294 293 293 293 292 289 287 285 283 278
304 305 304 304 302 301 302 302 302 303 304 306 307 308 310 315 307 311 310 302 284 275 286 283 286 290 289 287 288 290 290 287 284 281 284 284 286 288 291 289 290 290 286 279 278 277 278
304 305 305 304 304 303 303 302 303 302 303 306 307 307 311 313 314 310 306 291 271 283 283 287 288 289 286 288 286 287 288 286 287 285 283 282 281 286 290 289 287 286 287 279 272 273 276
302 304 305 305 304 304 304 303 303 302 303 305 306 306 309 311 312 309 297 283 281 283 287 286 287 284 282 287 286 285 286 287 288 285 282 282 282 287 288 289 291 285 282 287 279 271 275
301 302 304 305 305 303 303 303 302 301 304 304 298 300 302 311 311 305 292 286 284 290 289 290 282 285 281 285 283 283 284 290 289 288 287 285 281 286 287 289 289 288 289 283 281 272 271
301 301 302 304 305 303 303 302 302 301 303 303 294 293 298 301 309 298 286 286 287 291 292 287 284 283 283 284 285 284 284 286 292 288 288 286 284 282 287 285 284 284 283 283 285 281 275
301 300 301 302 304 303 302 302 302 300 303 298 289 285 297 297 292 292 288 288 293 290 291 290 288 286 285 286 282 284 282 287 292 289 285 287 284 279 282 285 286 286 286 287 283 279 277
301 299 299 302 303 303 303 302 301 302 302 293 285 285 296 295 285 286 291 290 291 291 291 288 287 288 287 286 283 285 285 290 292 291 288 289 283 276 280 284 285 284 285 286 285 283 279
300 299 297 300 302 302 302 302 301 301 303 295 288 283 286 289 288 290 288 288 287 292 292 292 289 289 287 286 288 285 286 289 291 292 295 293 285 283 279 281 285 282 284 285 285 281 280
300 299 298 298 299 301 302 302 302 302 301 294 288 283 284 282 284 290 291 289 285 287 292 292 287 287 287 283 284 284 287 288 290 293 292 290 282 283 282 284 286 285 285 285 284 286 282
300 300 299 298 299 300 301 302 302 302 300 291 283 285 286 285 286 288 289 287 287 286 289 287 286 287 288 285 286 283 287 287 287 288 290 288 279 283 281 284 284 283 286 286 286 287 286
299 299 299 299 298 300 300 300 301 302 297 286 288 292 287 285 284 286 286 287 288 288 289 289 290 289 287 290 291 291 292 291 290 288 288 287 281 277 275 282 282 279 283 285 286 288 288
298 297 298 299 298 300 300 300 301 301 297 289 289 289 284 281 284 285 288 289 289 288 286 289 291 290 291 292 293 293 291 290 290 288 289 285 286 281 275 279 274 284 287 287 286 287 289
296 297 298 299 299 299 299 300 301 301 300 291 291 287 285 280 285 284 286 288 289 289 287 288 288 289 290 291 287 285 284 285 284 285 285 285 284 277 278 271 279 283 284 285 284 287 289
296 297 298 299 299 299 299 299 300 301 300 292 291 291 287 283 282 286 285 287 286 284 284 285 288 290 290 287 285 281 278 278 278 281 286 285 284 282 267 276 275 285 285 287 289 282 293
296 297 298 299 299 298 298 298 299 300 300 293 291 292 287 281 285 287 283 283 286 285 283 284 285 287 287 285 283 282 279 281 278 278 280 279 278 279 267 271 274 281 283 287 280 284 284
296 297 298 298 298 297 296 297 298 299 299 294 292 292 287 282 285 287 289 286 285 285 282 284 285 284 284 286 285 284 278 280 279 281 281 281 279 277 271 269 276 283 282 284 286 282 283
296 297 296 298 297 297 297 297 297 298 299 295 288 293 291 284 284 289 289 290 290 289 287 285 284 283 286 284 284 284 281 281 277 278 283 282 284 282 282 281 285 284 283 284 285 284 283
Wind_Speed
6 9 12 13 12 10 12 9 11 10 16 15 19 22 23 22 24 23 23 23 22 20 22 20 16 12 6 3 4 2 18 16 12 9 11 6 9 6 6 5 2 4 5 5 6 4 6
8 8 10 10 9 8 2 3 8 4 12 17 12 16 22 21 22 25 24 22 19 21 22 21 18 13 4 11 2 6 8 9 12 7 5 6 6 3 8 5 5 5 11 9 5 4 1
8 8 8 10 6 3 9 9 6 3 3 6 11 13 21 20 21 22 24 22 21 21 21 22 20 3 3 14 4 8 15 7 6 7 10 2 4 2 7 5 1 6 10 14 6 2 2
6 6 6 5 6 1 3 4 7 6 5 6 9 16 20 20 21 22 22 23 23 20 21 21 17 1 7 3 3 7 8 7 8 4 11 9 7 2 4 1 6 4 5 4 5 4 2
8 6 6 4 6 3 2 2 3 9 7 10 10 15 21 21 20 25 26 24 24 20 21 20 7 2 4 4 5 4 6 12 9 6 4 5 5 4 4 6 4 6 10 7 7 6 3
8 8 8 6 4 5 3 6 8 6 10 12 8 8 20 22 21 26 27 25 23 20 14 9 4 3 3 6 4 7 1 13 8 7 6 5 5 4 4 8 10 9 8 5 7 5 2
9 8 6 8 9 5 3 6 10 8 9 11 8 13 22 24 25 29 28 17 12 6 10 6 9 3 6 4 5 3 6 8 8 8 13 7 10 19 17 12 5 5 7 5 4 3 5
11 7 6 7 8 7 3 5 7 10 10 10 9 17 22 26 27 31 18 10 10 9 9 2 13 2 4 7 6 4 10 9 11 16 15 5 22 12 8 8 9 8 8 6 1 1 3
12 9 6 5 8 9 2 4 9 10 10 9 12 17 22 24 29 19 14 7 8 20 7 4 7 5 6 4 6 11 11 5 12 17 20 14 4 7 11 8 13 10 11 6 4 4 1
13 11 8 5 7 4 1 4 8 10 12 9 11 9 18 27 21 16 11 10 16 2 6 5 5 6 5 8 4 6 7 9 5 17 12 7 13 8 5 16 14 17 4 6 5 5 5
16 12 10 7 5 6 7 7 5 9 11 11 14 9 11 28 16 15 14 8 7 5 7 12 6 4 8 8 12 7 4 3 10 9 9 10 15 12 17 18 10 11 6 6 4 3 4
17 15 12 10 5 5 6 7 7 8 9 11 12 9 18 21 10 16 13 11 6 4 8 10 10 11 10 6 3 7 7 3 7 6 4 9 3 18 22 12 14 7 4 6 4 2 4
13 16 15 13 9 6 6 6 7 9 9 10 12 11 13 13 14 18 12 11 5 7 7 9 9 16 14 6 5 8 17 8 9 10 16 4 4 2 5 8 4 10 9 2 1 2 10
11 14 16 14 13 11 7 6 7 8 9 11 13 12 11 10 20 21 10 10 5 13 13 5 9 16 14 10 3 6 14 12 7 6 7 14 10 10 6 7 10 7 10 6 8 5 2
4 11 16 17 14 11 9 6 7 7 8 12 14 3 5 9 21 16 17 19 14 13 10 11 11 17 5 7 9 6 14 23 11 10 8 11 10 2 1 3 11 6 8 6 7 2 4
3 4 9 14 15 11 6 7 5 7 8 9 1 2 1 16 20 15 19 22 5 7 12 19 10 13 14 22 9 12 16 18 15 11 4 7 5 2 1 2 1 9 10 4 2 5 4
4 1 4 12 14 11 7 4 2 4 7 6 3 2 1 8 15 14 22 20 4 4 17 9 8 9 10 15 14 19 19 4 19 10 3 5 5 2 4 7 9 3 4 2 4 5 7
8 3 4 2 11 8 5 1 0 2 4 4 2 3 2 10 13 11 19 11 4 6 2 5 7 7 12 16 5 12 15 11 15 12 8 4 6 5 5 0 0 2 6 12 8 10 1
10 5 3 5 9 6 5 3 3 2 5 2 1 0 3 6 13 16 14 4 4 8 8 8 6 5 5 12 7 6 7 7 14 18 15 8 2 5 4 2 1 6 4 4 6 5 9
9 9 4 2 4 6 1 4 5 5 4 3 2 0 2 3 3 18 20 19 9 1 5 5 7 6 8 9 2 10 9 4 8 12 7 8 4 9 13 8 10 6 6 5 6 5 5
12 11 12 5 4 5 6 5 6 4 3 2 2 1 2 2 2 13 15 21 7 8 3 4 2 9 12 6 6 7 6 4 3 5 6 6 7 5 3 4 7 6 11 14 10 19 12
13 9 11 10 4 5 4 6 5 4 3 3 3 1 3 4 2 13 12 23 24 4 7 5 8 7 6 9 10 9 9 6 9 2 16 3 5 6 3 3 3 5 10 14 20 17 22
10 11 8 8 6 6 4 4 3 4 5 2 0 3 3 4 3 15 8 15 24 10 3 4 6 7 5 5 3 5 6 7 11 11 14 12 7 5 8 4 5 4 14 14 14 18 19
10 6 7 6 5 8 6 4 4 6 5 3 2 3 2 2 3 2 13 6 19 9 10 2 2 4 2 2 2 11 13 12 10 7 2 7 10 3 3 4 5 10 6 11 16 13 20
8 7 7 12 7 8 7 6 6 5 6 4 2 3 3 2 3 4 5 11 7 6 4 4 2 2 2 3 6 7 5 5 5 5 4 2 7 4 7 4 6 9 9 8 7 17 15
7 8 9 13 11 10 9 7 7 7 7 4 2 0 3 4 2 2 3 4 7 5 4 2 3 3 1 3 5 6 7 6 5 2 2 3 4 6 3 7 16 17 11 6 9 21 16
7 9 13 14 15 13 9 7 6 8 6 4 2 3 4 4 2 2 2 3 2 4 5 3 3 2 1 3 4 3 4 4 7 11 7 4 3 10 3 4 12 7 4 7 10 15 2
7 9 14 15 15 13 10 8 5 7 6 5 2 4 3 3 2 3 3 2 2 2 4 5 5 2 1 5 4 4 4 6 3 2 9 10 8 4 4 3 17 7 4 19 7 2 2
10 12 8 13 11 13 12 10 7 6 10 6 3 2 2 5 3 0 2 4 3 2 5 2 3 3 1 3 2 3 3 1 4 7 1 7 7 9 11 10 4 5 1 1 3 4 3
Wind_Direction
317 315 326 332 319 292 259 176 180 230 273 217 193 194 184 182 180 173 177 170 162 165 167 157 154 151 142 154 225 165 154 142 131 132 180 186 151 141 167 190 344 185 318 326 329 298 117
302 313 326 329 321 329 293 166 145 213 266 214 203 199 179 181 181 171 172 167 160 164 165 156 155 158 148 187 162 143 142 123 153 134 130 175 196 203 135 193 177 343 325 325 336 317 141
286 300 321 330 321 339 53 57 56 56 336 320 200 212 183 177 179 172 167 160 157 158 154 150 150 158 208 190 152 161 149 165 156 143 150 138 317 143 142 110 256 11 331 327 278 229 226
270 279 296 337 355 278 63 54 34 22 342 339 282 211 184 173 176 167 162 154 149 153 151 148 144 251 199 262 118 135 123 123 141 120 139 171 174 86 94 333 50 47 311 289 291 167 204
256 262 291 344 359 24 71 68 27 15 359 321 267 212 183 173 172 165 155 144 142 148 139 130 112 166 220 115 145 196 129 156 131 84 72 91 144 210 144 127 93 216 213 206 277 210 141
237 237 239 288 308 344 34 31 12 354 337 319 272 248 179 174 171 162 147 134 130 125 111 99 85 96 237 189 176 143 101 140 127 75 77 210 162 213 178 181 199 176 209 218 195 207 170
230 238 250 282 289 306 337 34 351 327 313 328 232 236 184 172 170 154 128 126 124 144 185 167 169 224 146 134 99 123 132 102 108 152 182 192 189 209 208 191 255 200 186 210 229 176 149
215 227 232 261 279 272 331 24 313 307 304 336 256 215 189 170 168 149 146 165 146 134 136 302 168 311 131 147 104 147 133 135 151 171 190 182 221 207 203 172 213 246 203 205 298 34 143
217 216 216 241 270 270 250 343 299 302 307 320 312 199 194 174 157 149 158 141 129 129 132 206 178 188 150 122 136 179 158 118 154 174 196 199 259 148 174 181 217 237 217 204 181 127 34
205 219 207 217 241 252 318 279 292 293 302 320 316 262 202 162 155 157 167 145 161 55 105 175 190 246 147 139 125 159 185 134 167 185 186 234 251 155 165 226 209 240 211 167 146 127 211
199 210 209 219 222 259 252 269 291 289 306 315 314 281 271 174 143 169 151 123 116 12 132 162 174 148 148 156 136 219 163 86 163 165 159 200 191 167 218 216 207 234 163 173 174 166 126
198 204 209 210 229 237 247 277 310 307 299 301 304 298 313 184 147 154 139 115 92 88 228 178 152 168 136 165 188 129 149 115 146 129 196 199 176 170 205 204 213 163 81 46 57 77 261
224 214 212 211 205 217 253 281 305 306 306 301 295 294 297 172 159 146 143 132 123 188 158 180 180 169 153 134 111 167 178 177 160 140 187 160 189 185 141 162 149 178 140 208 235 189 230
240 219 221 216 215 214 226 271 290 307 311 309 307 291 224 176 151 145 146 149 147 180 181 140 135 148 171 133 159 176 157 197 248 163 142 167 208 167 171 204 186 170 185 170 182 208 231
248 232 223 224 227 219 236 244 286 315 320 326 321 238 194 183 152 153 156 182 200 181 144 121 105 151 151 186 133 147 189 197 188 190 157 172 201 70 220 160 154 186 199 176 97 16 60
233 226 226 218 225 227 247 233 279 329 335 340 332 351 22 167 151 159 173 189 179 173 110 136 148 190 173 182 142 166 180 198 206 190 216 200 149 127 163 129 332 187 155 139 45 141 247
199 284 232 216 212 208 209 226 250 351 359 328 27 107 329 288 148 177 187 187 133 169 130 134 146 169 185 179 187 182 185 252 192 172 194 153 115 147 127 210 171 157 170 105 114 154 189
190 152 28 233 190 196 223 232 230 353 301 30 115 165 290 306 168 185 190 159 128 137 162 136 117 130 174 168 130 186 191 203 178 142 175 217 117 142 182 224 31 327 184 191 195 211 214
172 150 23 344 203 196 204 198 146 91 66 122 334 309 303 265 172 183 170 176 144 146 186 149 134 160 158 163 165 164 158 212 185 165 173 187 168 89 34 4 201 210 195 162 118 75 208
169 156 190 102 72 124 119 173 110 85 47 94 219 65 330 329 329 169 169 183 171 193 158 144 132 117 119 166 94 168 165 168 195 190 139 117 141 164 198 211 131 191 184 171 169 178 189
189 166 150 251 133 62 53 129 125 82 100 98 360 56 24 245 180 175 178 176 142 166 120 161 82 170 156 137 146 153 137 116 65 164 137 150 194 167 211 171 174 186 185 181 184 219 193
200 191 171 172 211 134 82 62 60 83 78 90 132 53 14 346 137 186 171 192 184 148 137 190 149 176 170 150 179 166 134 177 172 175 185 182 223 129 175 129 171 180 187 188 213 225 242
183 177 186 176 188 191 137 88 47 59 87 115 273 92 54 345 270 178 190 177 185 142 45 66 147 126 133 133 109 157 153 134 146 154 178 178 133 104 224 140 97 338 206 194 214 215 228
168 176 175 189 195 200 158 122 96 60 89 124 86 93 66 339 336 171 181 160 179 180 139 111 53 98 151 117 117 58 55 61 82 45 69 150 179 120 160 83 180 244 183 192 203 216 229
176 187 210 181 192 163 143 133 114 97 66 82 116 131 127 12 343 10 119 175 111 95 77 114 64 36 359 74 74 72 15 39 9 34 18 351 135 118 154 183 293 274 214 162 171 260 224
182 186 196 180 171 160 161 152 119 110 97 93 85 76 95 114 317 10 35 128 154 131 99 51 43 25 24 85 92 134 179 167 205 18 7 75 54 143 122 165 218 258 179 153 89 273 247
187 188 180 170 156 144 142 131 128 118 96 108 66 31 90 100 343 318 42 68 104 105 111 134 126 71 274 115 119 134 189 168 167 169 162 104 57 188 156 198 277 232 138 126 137 257 266
166 180 178 167 155 140 149 135 118 127 107 78 55 10 109 107 47 3 5 52 62 59 136 164 112 127 339 135 165 174 140 213 122 155 172 155 144 174 82 92 260 150 71 166 219 85 99
141 122 104 161 166 143 135 129 118 115 99 89 83 353 18 79 134 6 32 2 33 35 115 43 72 103 101 119 112 123 131 147 143 217 350 188 186 176 173 207 203 191 94 94 152 138 122